Index of /20260413/WXO-DD/model_gdps/15km/12/120
Name Last modified Size Description
Parent Directory -
20260413T12Z_MSC_GDPS_AbsoluteVorticity_IsbL-0200_LatLon0.15_PT120H.grib2 2026-04-13 16:47 1.5M
20260413T12Z_MSC_GDPS_AbsoluteVorticity_IsbL-0250_LatLon0.15_PT120H.grib2 2026-04-13 16:47 1.3M
20260413T12Z_MSC_GDPS_AbsoluteVorticity_IsbL-0500_LatLon0.15_PT120H.grib2 2026-04-13 16:47 1.5M
20260413T12Z_MSC_GDPS_AbsoluteVorticity_IsbL-0700_LatLon0.15_PT120H.grib2 2026-04-13 16:47 1.6M
20260413T12Z_MSC_GDPS_AbsoluteVorticity_IsbL-0850_LatLon0.15_PT120H.grib2 2026-04-13 16:47 1.6M
20260413T12Z_MSC_GDPS_AirTemp-Max_AGL-2m_LatLon0.15_PT120H.grib2 2026-04-13 16:47 748K
20260413T12Z_MSC_GDPS_AirTemp-Min_AGL-2m_LatLon0.15_PT120H.grib2 2026-04-13 16:47 793K
20260413T12Z_MSC_GDPS_AirTemp_AGL-120m_LatLon0.15_PT120H.grib2 2026-04-13 16:47 913K
20260413T12Z_MSC_GDPS_AirTemp_AGL-2m_LatLon0.15_PT120H.grib2 2026-04-13 16:47 1.0M
20260413T12Z_MSC_GDPS_AirTemp_AGL-40m_LatLon0.15_PT120H.grib2 2026-04-13 16:47 813K
20260413T12Z_MSC_GDPS_AirTemp_AGL-80m_LatLon0.15_PT120H.grib2 2026-04-13 16:47 921K
20260413T12Z_MSC_GDPS_AirTemp_IsbL-0001_LatLon0.15_PT120H.grib2 2026-04-13 16:47 699K
20260413T12Z_MSC_GDPS_AirTemp_IsbL-0005_LatLon0.15_PT120H.grib2 2026-04-13 16:47 678K
20260413T12Z_MSC_GDPS_AirTemp_IsbL-0010_LatLon0.15_PT120H.grib2 2026-04-13 16:47 747K
20260413T12Z_MSC_GDPS_AirTemp_IsbL-0020_LatLon0.15_PT120H.grib2 2026-04-13 16:47 690K
20260413T12Z_MSC_GDPS_AirTemp_IsbL-0030_LatLon0.15_PT120H.grib2 2026-04-13 16:47 743K
20260413T12Z_MSC_GDPS_AirTemp_IsbL-0050_LatLon0.15_PT120H.grib2 2026-04-13 16:47 809K
20260413T12Z_MSC_GDPS_AirTemp_IsbL-0100_LatLon0.15_PT120H.grib2 2026-04-13 16:47 954K
20260413T12Z_MSC_GDPS_AirTemp_IsbL-0150_LatLon0.15_PT120H.grib2 2026-04-13 16:47 965K
20260413T12Z_MSC_GDPS_AirTemp_IsbL-0175_LatLon0.15_PT120H.grib2 2026-04-13 16:47 956K
20260413T12Z_MSC_GDPS_AirTemp_IsbL-0200_LatLon0.15_PT120H.grib2 2026-04-13 16:47 967K
20260413T12Z_MSC_GDPS_AirTemp_IsbL-0225_LatLon0.15_PT120H.grib2 2026-04-13 16:47 971K
20260413T12Z_MSC_GDPS_AirTemp_IsbL-0250_LatLon0.15_PT120H.grib2 2026-04-13 16:47 1.0M
20260413T12Z_MSC_GDPS_AirTemp_IsbL-0275_LatLon0.15_PT120H.grib2 2026-04-13 16:47 1.0M
20260413T12Z_MSC_GDPS_AirTemp_IsbL-0300_LatLon0.15_PT120H.grib2 2026-04-13 16:47 1.0M
20260413T12Z_MSC_GDPS_AirTemp_IsbL-0350_LatLon0.15_PT120H.grib2 2026-04-13 16:47 926K
20260413T12Z_MSC_GDPS_AirTemp_IsbL-0400_LatLon0.15_PT120H.grib2 2026-04-13 16:47 936K
20260413T12Z_MSC_GDPS_AirTemp_IsbL-0450_LatLon0.15_PT120H.grib2 2026-04-13 16:47 957K
20260413T12Z_MSC_GDPS_AirTemp_IsbL-0500_LatLon0.15_PT120H.grib2 2026-04-13 16:47 1.0M
20260413T12Z_MSC_GDPS_AirTemp_IsbL-0550_LatLon0.15_PT120H.grib2 2026-04-13 16:47 1.0M
20260413T12Z_MSC_GDPS_AirTemp_IsbL-0600_LatLon0.15_PT120H.grib2 2026-04-13 16:47 891K
20260413T12Z_MSC_GDPS_AirTemp_IsbL-0650_LatLon0.15_PT120H.grib2 2026-04-13 16:47 922K
20260413T12Z_MSC_GDPS_AirTemp_IsbL-0700_LatLon0.15_PT120H.grib2 2026-04-13 16:47 961K
20260413T12Z_MSC_GDPS_AirTemp_IsbL-0750_LatLon0.15_PT120H.grib2 2026-04-13 16:47 1.0M
20260413T12Z_MSC_GDPS_AirTemp_IsbL-0800_LatLon0.15_PT120H.grib2 2026-04-13 16:47 1.1M
20260413T12Z_MSC_GDPS_AirTemp_IsbL-0850_LatLon0.15_PT120H.grib2 2026-04-13 16:47 1.1M
20260413T12Z_MSC_GDPS_AirTemp_IsbL-0875_LatLon0.15_PT120H.grib2 2026-04-13 16:47 1.2M
20260413T12Z_MSC_GDPS_AirTemp_IsbL-0900_LatLon0.15_PT120H.grib2 2026-04-13 16:47 1.1M
20260413T12Z_MSC_GDPS_AirTemp_IsbL-0925_LatLon0.15_PT120H.grib2 2026-04-13 16:47 1.1M
20260413T12Z_MSC_GDPS_AirTemp_IsbL-0950_LatLon0.15_PT120H.grib2 2026-04-13 16:47 1.1M
20260413T12Z_MSC_GDPS_AirTemp_IsbL-0970_LatLon0.15_PT120H.grib2 2026-04-13 16:47 1.2M
20260413T12Z_MSC_GDPS_AirTemp_IsbL-0985_LatLon0.15_PT120H.grib2 2026-04-13 16:47 1.1M
20260413T12Z_MSC_GDPS_AirTemp_IsbL-1000_LatLon0.15_PT120H.grib2 2026-04-13 16:47 1.1M
20260413T12Z_MSC_GDPS_AirTemp_IsbL-1015_LatLon0.15_PT120H.grib2 2026-04-13 16:47 1.1M
20260413T12Z_MSC_GDPS_Albedo_Sfc_LatLon0.15_PT120H.grib2 2026-04-13 16:47 244K
20260413T12Z_MSC_GDPS_CAPE_Sfc_LatLon0.15_PT120H.grib2 2026-04-13 16:47 3.8M
20260413T12Z_MSC_GDPS_CIN_Sfc_LatLon0.15_PT120H.grib2 2026-04-13 16:47 2.9M
20260413T12Z_MSC_GDPS_CloudWater_EAtm_LatLon0.15_PT120H.grib2 2026-04-13 16:47 535K
20260413T12Z_MSC_GDPS_ConvectivePrecip-Accum_Sfc_LatLon0.15_PT120H.grib2 2026-04-13 16:47 3.2M
20260413T12Z_MSC_GDPS_DewPointDepression_AGL-2m_LatLon0.15_PT120H.grib2 2026-04-13 16:47 753K
20260413T12Z_MSC_GDPS_DewPointDepression_IsbL-0010_LatLon0.15_PT120H.grib2 2026-04-13 16:47 2.6K
20260413T12Z_MSC_GDPS_DewPointDepression_IsbL-0020_LatLon0.15_PT120H.grib2 2026-04-13 16:47 55K
20260413T12Z_MSC_GDPS_DewPointDepression_IsbL-0030_LatLon0.15_PT120H.grib2 2026-04-13 16:47 68K
20260413T12Z_MSC_GDPS_DewPointDepression_IsbL-0050_LatLon0.15_PT120H.grib2 2026-04-13 16:47 322K
20260413T12Z_MSC_GDPS_DewPointDepression_IsbL-0100_LatLon0.15_PT120H.grib2 2026-04-13 16:47 370K
20260413T12Z_MSC_GDPS_DewPointDepression_IsbL-0150_LatLon0.15_PT120H.grib2 2026-04-13 16:47 458K
20260413T12Z_MSC_GDPS_DewPointDepression_IsbL-0175_LatLon0.15_PT120H.grib2 2026-04-13 16:47 539K
20260413T12Z_MSC_GDPS_DewPointDepression_IsbL-0200_LatLon0.15_PT120H.grib2 2026-04-13 16:47 626K
20260413T12Z_MSC_GDPS_DewPointDepression_IsbL-0225_LatLon0.15_PT120H.grib2 2026-04-13 16:47 761K
20260413T12Z_MSC_GDPS_DewPointDepression_IsbL-0250_LatLon0.15_PT120H.grib2 2026-04-13 16:47 881K
20260413T12Z_MSC_GDPS_DewPointDepression_IsbL-0275_LatLon0.15_PT120H.grib2 2026-04-13 16:47 896K
20260413T12Z_MSC_GDPS_DewPointDepression_IsbL-0300_LatLon0.15_PT120H.grib2 2026-04-13 16:47 928K
20260413T12Z_MSC_GDPS_DewPointDepression_IsbL-0350_LatLon0.15_PT120H.grib2 2026-04-13 16:47 953K
20260413T12Z_MSC_GDPS_DewPointDepression_IsbL-0400_LatLon0.15_PT120H.grib2 2026-04-13 16:47 1.0M
20260413T12Z_MSC_GDPS_DewPointDepression_IsbL-0450_LatLon0.15_PT120H.grib2 2026-04-13 16:47 1.0M
20260413T12Z_MSC_GDPS_DewPointDepression_IsbL-0500_LatLon0.15_PT120H.grib2 2026-04-13 16:47 1.0M
20260413T12Z_MSC_GDPS_DewPointDepression_IsbL-0550_LatLon0.15_PT120H.grib2 2026-04-13 16:47 1.0M
20260413T12Z_MSC_GDPS_DewPointDepression_IsbL-0600_LatLon0.15_PT120H.grib2 2026-04-13 16:47 1.1M
20260413T12Z_MSC_GDPS_DewPointDepression_IsbL-0650_LatLon0.15_PT120H.grib2 2026-04-13 16:47 1.1M
20260413T12Z_MSC_GDPS_DewPointDepression_IsbL-0700_LatLon0.15_PT120H.grib2 2026-04-13 16:47 1.1M
20260413T12Z_MSC_GDPS_DewPointDepression_IsbL-0750_LatLon0.15_PT120H.grib2 2026-04-13 16:47 1.1M
20260413T12Z_MSC_GDPS_DewPointDepression_IsbL-0800_LatLon0.15_PT120H.grib2 2026-04-13 16:47 1.2M
20260413T12Z_MSC_GDPS_DewPointDepression_IsbL-0850_LatLon0.15_PT120H.grib2 2026-04-13 16:47 1.2M
20260413T12Z_MSC_GDPS_DewPointDepression_IsbL-0875_LatLon0.15_PT120H.grib2 2026-04-13 16:47 1.1M
20260413T12Z_MSC_GDPS_DewPointDepression_IsbL-0900_LatLon0.15_PT120H.grib2 2026-04-13 16:47 1.1M
20260413T12Z_MSC_GDPS_DewPointDepression_IsbL-0925_LatLon0.15_PT120H.grib2 2026-04-13 16:47 1.0M
20260413T12Z_MSC_GDPS_DewPointDepression_IsbL-0950_LatLon0.15_PT120H.grib2 2026-04-13 16:47 1.0M
20260413T12Z_MSC_GDPS_DewPointDepression_IsbL-0970_LatLon0.15_PT120H.grib2 2026-04-13 16:47 1.0M
20260413T12Z_MSC_GDPS_DewPointDepression_IsbL-0985_LatLon0.15_PT120H.grib2 2026-04-13 16:47 1.0M
20260413T12Z_MSC_GDPS_DewPointDepression_IsbL-1000_LatLon0.15_PT120H.grib2 2026-04-13 16:47 970K
20260413T12Z_MSC_GDPS_DewPointDepression_IsbL-1015_LatLon0.15_PT120H.grib2 2026-04-13 16:47 911K
20260413T12Z_MSC_GDPS_DewPoint_AGL-2m_LatLon0.15_PT120H.grib2 2026-04-13 16:47 618K
20260413T12Z_MSC_GDPS_DownwardLongwaveRadiationFlux-Accum_Sfc_LatLon0.15_PT120H.grib2 2026-04-13 16:47 803K
20260413T12Z_MSC_GDPS_DownwardShortwaveRadiationFlux-Accum_NTAtm_LatLon0.15_PT120H.grib2 2026-04-13 16:47 262K
20260413T12Z_MSC_GDPS_DownwardShortwaveRadiationFlux-Accum_Sfc_LatLon0.15_PT120H.grib2 2026-04-13 16:47 1.0M
20260413T12Z_MSC_GDPS_FreezingRain-Accum12h_Sfc_LatLon0.15_PT120H.grib2 2026-04-13 16:47 92K
20260413T12Z_MSC_GDPS_FreezingRain-Accum1h_Sfc_LatLon0.15_PT120H.grib2 2026-04-13 16:47 31K
20260413T12Z_MSC_GDPS_FreezingRain-Accum24h_Sfc_LatLon0.15_PT120H.grib2 2026-04-13 16:47 127K
20260413T12Z_MSC_GDPS_FreezingRain-Accum3h_Sfc_LatLon0.15_PT120H.grib2 2026-04-13 16:47 37K
20260413T12Z_MSC_GDPS_FreezingRain-Accum6h_Sfc_LatLon0.15_PT120H.grib2 2026-04-13 16:47 57K
20260413T12Z_MSC_GDPS_FreezingRain-Accum_Sfc_LatLon0.15_PT120H.grib2 2026-04-13 16:47 262K
20260413T12Z_MSC_GDPS_GeopotentialHeight_IsbL-0001_LatLon0.15_PT120H.grib2 2026-04-13 16:47 530K
20260413T12Z_MSC_GDPS_GeopotentialHeight_IsbL-0005_LatLon0.15_PT120H.grib2 2026-04-13 16:47 503K
20260413T12Z_MSC_GDPS_GeopotentialHeight_IsbL-0010_LatLon0.15_PT120H.grib2 2026-04-13 16:47 437K
20260413T12Z_MSC_GDPS_GeopotentialHeight_IsbL-0020_LatLon0.15_PT120H.grib2 2026-04-13 16:47 577K
20260413T12Z_MSC_GDPS_GeopotentialHeight_IsbL-0030_LatLon0.15_PT120H.grib2 2026-04-13 16:47 580K
20260413T12Z_MSC_GDPS_GeopotentialHeight_IsbL-0050_LatLon0.15_PT120H.grib2 2026-04-13 16:47 513K
20260413T12Z_MSC_GDPS_GeopotentialHeight_IsbL-0100_LatLon0.15_PT120H.grib2 2026-04-13 16:47 621K
20260413T12Z_MSC_GDPS_GeopotentialHeight_IsbL-0150_LatLon0.15_PT120H.grib2 2026-04-13 16:47 636K
20260413T12Z_MSC_GDPS_GeopotentialHeight_IsbL-0175_LatLon0.15_PT120H.grib2 2026-04-13 16:47 638K
20260413T12Z_MSC_GDPS_GeopotentialHeight_IsbL-0200_LatLon0.15_PT120H.grib2 2026-04-13 16:47 641K
20260413T12Z_MSC_GDPS_GeopotentialHeight_IsbL-0225_LatLon0.15_PT120H.grib2 2026-04-13 16:47 637K
20260413T12Z_MSC_GDPS_GeopotentialHeight_IsbL-0250_LatLon0.15_PT120H.grib2 2026-04-13 16:47 647K
20260413T12Z_MSC_GDPS_GeopotentialHeight_IsbL-0275_LatLon0.15_PT120H.grib2 2026-04-13 16:47 644K
20260413T12Z_MSC_GDPS_GeopotentialHeight_IsbL-0300_LatLon0.15_PT120H.grib2 2026-04-13 16:47 642K
20260413T12Z_MSC_GDPS_GeopotentialHeight_IsbL-0350_LatLon0.15_PT120H.grib2 2026-04-13 16:47 629K
20260413T12Z_MSC_GDPS_GeopotentialHeight_IsbL-0400_LatLon0.15_PT120H.grib2 2026-04-13 16:47 620K
20260413T12Z_MSC_GDPS_GeopotentialHeight_IsbL-0450_LatLon0.15_PT120H.grib2 2026-04-13 16:47 541K
20260413T12Z_MSC_GDPS_GeopotentialHeight_IsbL-0500_LatLon0.15_PT120H.grib2 2026-04-13 16:47 531K
20260413T12Z_MSC_GDPS_GeopotentialHeight_IsbL-0550_LatLon0.15_PT120H.grib2 2026-04-13 16:47 691K
20260413T12Z_MSC_GDPS_GeopotentialHeight_IsbL-0600_LatLon0.15_PT120H.grib2 2026-04-13 16:47 687K
20260413T12Z_MSC_GDPS_GeopotentialHeight_IsbL-0650_LatLon0.15_PT120H.grib2 2026-04-13 16:47 685K
20260413T12Z_MSC_GDPS_GeopotentialHeight_IsbL-0700_LatLon0.15_PT120H.grib2 2026-04-13 16:47 683K
20260413T12Z_MSC_GDPS_GeopotentialHeight_IsbL-0750_LatLon0.15_PT120H.grib2 2026-04-13 16:47 626K
20260413T12Z_MSC_GDPS_GeopotentialHeight_IsbL-0800_LatLon0.15_PT120H.grib2 2026-04-13 16:47 637K
20260413T12Z_MSC_GDPS_GeopotentialHeight_IsbL-0850_LatLon0.15_PT120H.grib2 2026-04-13 16:47 645K
20260413T12Z_MSC_GDPS_GeopotentialHeight_IsbL-0875_LatLon0.15_PT120H.grib2 2026-04-13 16:47 711K
20260413T12Z_MSC_GDPS_GeopotentialHeight_IsbL-0900_LatLon0.15_PT120H.grib2 2026-04-13 16:47 723K
20260413T12Z_MSC_GDPS_GeopotentialHeight_IsbL-0925_LatLon0.15_PT120H.grib2 2026-04-13 16:47 731K
20260413T12Z_MSC_GDPS_GeopotentialHeight_IsbL-0950_LatLon0.15_PT120H.grib2 2026-04-13 16:47 734K
20260413T12Z_MSC_GDPS_GeopotentialHeight_IsbL-0970_LatLon0.15_PT120H.grib2 2026-04-13 16:47 748K
20260413T12Z_MSC_GDPS_GeopotentialHeight_IsbL-0985_LatLon0.15_PT120H.grib2 2026-04-13 16:47 764K
20260413T12Z_MSC_GDPS_GeopotentialHeight_IsbL-1000_LatLon0.15_PT120H.grib2 2026-04-13 16:47 785K
20260413T12Z_MSC_GDPS_GeopotentialHeight_IsbL-1015_LatLon0.15_PT120H.grib2 2026-04-13 16:47 808K
20260413T12Z_MSC_GDPS_Humidex_Sfc_LatLon0.15_PT120H.grib2 2026-04-13 16:47 5.3M
20260413T12Z_MSC_GDPS_IcePellets-Accum12h_Sfc_LatLon0.15_PT120H.grib2 2026-04-13 16:47 35K
20260413T12Z_MSC_GDPS_IcePellets-Accum1h_Sfc_LatLon0.15_PT120H.grib2 2026-04-13 16:47 13K
20260413T12Z_MSC_GDPS_IcePellets-Accum24h_Sfc_LatLon0.15_PT120H.grib2 2026-04-13 16:47 52K
20260413T12Z_MSC_GDPS_IcePellets-Accum3h_Sfc_LatLon0.15_PT120H.grib2 2026-04-13 16:47 16K
20260413T12Z_MSC_GDPS_IcePellets-Accum6h_Sfc_LatLon0.15_PT120H.grib2 2026-04-13 16:47 26K
20260413T12Z_MSC_GDPS_IcePellets-Accum_Sfc_LatLon0.15_PT120H.grib2 2026-04-13 16:47 132K
20260413T12Z_MSC_GDPS_KIndex_Sfc_LatLon0.15_PT120H.grib2 2026-04-13 16:47 6.5M
20260413T12Z_MSC_GDPS_LatentHeatNetFlux_Sfc_LatLon0.15_PT120H.grib2 2026-04-13 16:47 533K
20260413T12Z_MSC_GDPS_LiftedIndex-MU-VT_IsbL-0500_LatLon0.15_PT120H.grib2 2026-04-13 16:47 5.4M
20260413T12Z_MSC_GDPS_NetLongwaveRadiationFlux-Accum_Sfc_LatLon0.15_PT120H.grib2 2026-04-13 16:47 1.0M
20260413T12Z_MSC_GDPS_NetShortwaveRadiationFlux-Accum_Sfc_LatLon0.15_PT120H.grib2 2026-04-13 16:47 1.0M
20260413T12Z_MSC_GDPS_O3MixingRatio_LatLon0.15_PT120H.grib2 2026-04-13 17:07 1.9M
20260413T12Z_MSC_GDPS_O3_EAtm_LatLon0.15_PT120H.grib2 2026-04-13 17:07 2.1M
20260413T12Z_MSC_GDPS_PlanetaryBoundaryLayerHeight_Sfc_LatLon0.15_PT120H.grib2 2026-04-13 16:47 2.5M
20260413T12Z_MSC_GDPS_Precip-Accum12h_Sfc_LatLon0.15_PT120H.grib2 2026-04-13 16:47 4.3M
20260413T12Z_MSC_GDPS_Precip-Accum1h_Sfc_LatLon0.15_PT120H.grib2 2026-04-13 16:47 3.2M
20260413T12Z_MSC_GDPS_Precip-Accum24h_Sfc_LatLon0.15_PT120H.grib2 2026-04-13 16:47 4.5M
20260413T12Z_MSC_GDPS_Precip-Accum3h_Sfc_LatLon0.15_PT120H.grib2 2026-04-13 16:47 3.5M
20260413T12Z_MSC_GDPS_Precip-Accum6h_Sfc_LatLon0.15_PT120H.grib2 2026-04-13 16:47 3.8M
20260413T12Z_MSC_GDPS_Precip-Accum_Sfc_LatLon0.15_PT120H.grib2 2026-04-13 16:47 5.0M
20260413T12Z_MSC_GDPS_PrecipRate_Sfc_LatLon0.15_PT120H.grib2 2026-04-13 16:47 3.0M
20260413T12Z_MSC_GDPS_PrecipType-Instant_Sfc_LatLon0.15_PT120H.grib2 2026-04-13 16:47 1.5M
20260413T12Z_MSC_GDPS_Pressure_MSL_LatLon0.15_PT120H.grib2 2026-04-13 16:47 720K
20260413T12Z_MSC_GDPS_Pressure_PVU-1.5_LatLon0.15_PT120H.grib2 2026-04-13 16:47 5.8M
20260413T12Z_MSC_GDPS_Pressure_PVU-1_LatLon0.15_PT120H.grib2 2026-04-13 16:47 6.0M
20260413T12Z_MSC_GDPS_Pressure_PVU-2_LatLon0.15_PT120H.grib2 2026-04-13 16:47 5.6M
20260413T12Z_MSC_GDPS_Pressure_Sfc_LatLon0.15_PT120H.grib2 2026-04-13 16:47 1.1M
20260413T12Z_MSC_GDPS_RadiativeTemp_Sfc_LatLon0.15_PT120H.grib2 2026-04-13 16:47 508K
20260413T12Z_MSC_GDPS_Rain-Accum12h_Sfc_LatLon0.15_PT120H.grib2 2026-04-13 16:47 2.8M
20260413T12Z_MSC_GDPS_Rain-Accum1h_Sfc_LatLon0.15_PT120H.grib2 2026-04-13 16:47 1.6M
20260413T12Z_MSC_GDPS_Rain-Accum24h_Sfc_LatLon0.15_PT120H.grib2 2026-04-13 16:47 3.1M
20260413T12Z_MSC_GDPS_Rain-Accum3h_Sfc_LatLon0.15_PT120H.grib2 2026-04-13 16:47 1.7M
20260413T12Z_MSC_GDPS_Rain-Accum6h_Sfc_LatLon0.15_PT120H.grib2 2026-04-13 16:47 2.4M
20260413T12Z_MSC_GDPS_Rain-Accum_Sfc_LatLon0.15_PT120H.grib2 2026-04-13 16:47 3.8M
20260413T12Z_MSC_GDPS_RelativeHumidity_AGL-2m_LatLon0.15_PT120H.grib2 2026-04-13 16:47 1.0M
20260413T12Z_MSC_GDPS_RelativeHumidity_IsbL-0010_LatLon0.15_PT120H.grib2 2026-04-13 16:47 226K
20260413T12Z_MSC_GDPS_RelativeHumidity_IsbL-0020_LatLon0.15_PT120H.grib2 2026-04-13 16:47 364K
20260413T12Z_MSC_GDPS_RelativeHumidity_IsbL-0030_LatLon0.15_PT120H.grib2 2026-04-13 16:47 374K
20260413T12Z_MSC_GDPS_RelativeHumidity_IsbL-0050_LatLon0.15_PT120H.grib2 2026-04-13 16:47 403K
20260413T12Z_MSC_GDPS_RelativeHumidity_IsbL-0100_LatLon0.15_PT120H.grib2 2026-04-13 16:47 478K
20260413T12Z_MSC_GDPS_RelativeHumidity_IsbL-0150_LatLon0.15_PT120H.grib2 2026-04-13 16:47 645K
20260413T12Z_MSC_GDPS_RelativeHumidity_IsbL-0175_LatLon0.15_PT120H.grib2 2026-04-13 16:47 785K
20260413T12Z_MSC_GDPS_RelativeHumidity_IsbL-0200_LatLon0.15_PT120H.grib2 2026-04-13 16:47 695K
20260413T12Z_MSC_GDPS_RelativeHumidity_IsbL-0225_LatLon0.15_PT120H.grib2 2026-04-13 16:47 787K
20260413T12Z_MSC_GDPS_RelativeHumidity_IsbL-0250_LatLon0.15_PT120H.grib2 2026-04-13 16:47 881K
20260413T12Z_MSC_GDPS_RelativeHumidity_IsbL-0275_LatLon0.15_PT120H.grib2 2026-04-13 16:47 904K
20260413T12Z_MSC_GDPS_RelativeHumidity_IsbL-0300_LatLon0.15_PT120H.grib2 2026-04-13 16:47 943K
20260413T12Z_MSC_GDPS_RelativeHumidity_IsbL-0350_LatLon0.15_PT120H.grib2 2026-04-13 16:47 962K
20260413T12Z_MSC_GDPS_RelativeHumidity_IsbL-0400_LatLon0.15_PT120H.grib2 2026-04-13 16:47 1.0M
20260413T12Z_MSC_GDPS_RelativeHumidity_IsbL-0450_LatLon0.15_PT120H.grib2 2026-04-13 16:47 1.0M
20260413T12Z_MSC_GDPS_RelativeHumidity_IsbL-0500_LatLon0.15_PT120H.grib2 2026-04-13 16:47 1.0M
20260413T12Z_MSC_GDPS_RelativeHumidity_IsbL-0550_LatLon0.15_PT120H.grib2 2026-04-13 16:47 1.0M
20260413T12Z_MSC_GDPS_RelativeHumidity_IsbL-0600_LatLon0.15_PT120H.grib2 2026-04-13 16:47 1.1M
20260413T12Z_MSC_GDPS_RelativeHumidity_IsbL-0650_LatLon0.15_PT120H.grib2 2026-04-13 16:47 1.1M
20260413T12Z_MSC_GDPS_RelativeHumidity_IsbL-0700_LatLon0.15_PT120H.grib2 2026-04-13 16:47 1.2M
20260413T12Z_MSC_GDPS_RelativeHumidity_IsbL-0750_LatLon0.15_PT120H.grib2 2026-04-13 16:47 1.2M
20260413T12Z_MSC_GDPS_RelativeHumidity_IsbL-0800_LatLon0.15_PT120H.grib2 2026-04-13 16:47 1.3M
20260413T12Z_MSC_GDPS_RelativeHumidity_IsbL-0850_LatLon0.15_PT120H.grib2 2026-04-13 16:47 1.3M
20260413T12Z_MSC_GDPS_RelativeHumidity_IsbL-0875_LatLon0.15_PT120H.grib2 2026-04-13 16:47 1.3M
20260413T12Z_MSC_GDPS_RelativeHumidity_IsbL-0900_LatLon0.15_PT120H.grib2 2026-04-13 16:47 1.2M
20260413T12Z_MSC_GDPS_RelativeHumidity_IsbL-0925_LatLon0.15_PT120H.grib2 2026-04-13 16:47 1.2M
20260413T12Z_MSC_GDPS_RelativeHumidity_IsbL-0950_LatLon0.15_PT120H.grib2 2026-04-13 16:47 1.2M
20260413T12Z_MSC_GDPS_RelativeHumidity_IsbL-0970_LatLon0.15_PT120H.grib2 2026-04-13 16:47 1.2M
20260413T12Z_MSC_GDPS_RelativeHumidity_IsbL-0985_LatLon0.15_PT120H.grib2 2026-04-13 16:47 1.1M
20260413T12Z_MSC_GDPS_RelativeHumidity_IsbL-1000_LatLon0.15_PT120H.grib2 2026-04-13 16:47 1.1M
20260413T12Z_MSC_GDPS_RelativeHumidity_IsbL-1015_LatLon0.15_PT120H.grib2 2026-04-13 16:47 1.0M
20260413T12Z_MSC_GDPS_RelativeVorticity_IsbL-0200_LatLon0.15_PT120H.grib2 2026-04-13 16:47 1.5M
20260413T12Z_MSC_GDPS_RelativeVorticity_IsbL-0250_LatLon0.15_PT120H.grib2 2026-04-13 16:47 1.6M
20260413T12Z_MSC_GDPS_RelativeVorticity_IsbL-0500_LatLon0.15_PT120H.grib2 2026-04-13 16:47 1.5M
20260413T12Z_MSC_GDPS_RelativeVorticity_IsbL-0700_LatLon0.15_PT120H.grib2 2026-04-13 16:47 1.6M
20260413T12Z_MSC_GDPS_RelativeVorticity_IsbL-0850_LatLon0.15_PT120H.grib2 2026-04-13 16:47 1.6M
20260413T12Z_MSC_GDPS_Runoff-Accum_Sfc_LatLon0.15_PT120H.grib2 2026-04-13 16:47 115K
20260413T12Z_MSC_GDPS_SensibleHeatNetFlux_Sfc_LatLon0.15_PT120H.grib2 2026-04-13 16:47 640K
20260413T12Z_MSC_GDPS_ShowalterIndex_IsbL-0500_LatLon0.15_PT120H.grib2 2026-04-13 16:47 6.2M
20260413T12Z_MSC_GDPS_Snow-Accum12h_Sfc_LatLon0.15_PT120H.grib2 2026-04-13 16:47 1.5M
20260413T12Z_MSC_GDPS_Snow-Accum1h_Sfc_LatLon0.15_PT120H.grib2 2026-04-13 16:47 1.0M
20260413T12Z_MSC_GDPS_Snow-Accum24h_Sfc_LatLon0.15_PT120H.grib2 2026-04-13 16:47 1.6M
20260413T12Z_MSC_GDPS_Snow-Accum3h_Sfc_LatLon0.15_PT120H.grib2 2026-04-13 16:47 1.1M
20260413T12Z_MSC_GDPS_Snow-Accum6h_Sfc_LatLon0.15_PT120H.grib2 2026-04-13 16:47 1.5M
20260413T12Z_MSC_GDPS_Snow-Accum_Sfc_LatLon0.15_PT120H.grib2 2026-04-13 16:47 1.9M
20260413T12Z_MSC_GDPS_SnowDensity_Sfc_LatLon0.15_PT120H.grib2 2026-04-13 16:47 268K
20260413T12Z_MSC_GDPS_SnowDepth_Sfc_LatLon0.15_PT120H.grib2 2026-04-13 16:47 1.8M
20260413T12Z_MSC_GDPS_SoilTemp_DBS-0to10cm_LatLon0.15_PT120H.grib2 2026-04-13 16:47 508K
20260413T12Z_MSC_GDPS_SoilTemp_Sfc_LatLon0.15_PT120H.grib2 2026-04-13 16:47 575K
20260413T12Z_MSC_GDPS_SoilVolumetricIceContent_Sfc_LatLon0.15_PT120H.grib2 2026-04-13 16:47 224K
20260413T12Z_MSC_GDPS_SoilVolumetricWaterContent_DBS-0to10cm_LatLon0.15_PT120H.grib2 2026-04-13 16:47 552K
20260413T12Z_MSC_GDPS_SoilVolumetricWaterContent_DBS-0to1cm_LatLon0.15_PT120H.grib2 2026-04-13 16:47 649K
20260413T12Z_MSC_GDPS_SpecificHumidity_AGL-120m_LatLon0.15_PT120H.grib2 2026-04-13 16:47 1.1M
20260413T12Z_MSC_GDPS_SpecificHumidity_AGL-2m_LatLon0.15_PT120H.grib2 2026-04-13 16:47 1.2M
20260413T12Z_MSC_GDPS_SpecificHumidity_AGL-40m_LatLon0.15_PT120H.grib2 2026-04-13 16:47 1.1M
20260413T12Z_MSC_GDPS_SpecificHumidity_AGL-80m_LatLon0.15_PT120H.grib2 2026-04-13 16:47 1.1M
20260413T12Z_MSC_GDPS_SpecificHumidity_IsbL-0001_LatLon0.15_PT120H.grib2 2026-04-13 16:47 1.1M
20260413T12Z_MSC_GDPS_SpecificHumidity_IsbL-0005_LatLon0.15_PT120H.grib2 2026-04-13 16:47 1.1M
20260413T12Z_MSC_GDPS_SpecificHumidity_IsbL-0010_LatLon0.15_PT120H.grib2 2026-04-13 16:47 1.2M
20260413T12Z_MSC_GDPS_SpecificHumidity_IsbL-0020_LatLon0.15_PT120H.grib2 2026-04-13 16:47 1.3M
20260413T12Z_MSC_GDPS_SpecificHumidity_IsbL-0030_LatLon0.15_PT120H.grib2 2026-04-13 16:47 1.6M
20260413T12Z_MSC_GDPS_SpecificHumidity_IsbL-0050_LatLon0.15_PT120H.grib2 2026-04-13 16:47 1.3M
20260413T12Z_MSC_GDPS_SpecificHumidity_IsbL-0100_LatLon0.15_PT120H.grib2 2026-04-13 16:47 1.3M
20260413T12Z_MSC_GDPS_SpecificHumidity_IsbL-0150_LatLon0.15_PT120H.grib2 2026-04-13 16:47 1.3M
20260413T12Z_MSC_GDPS_SpecificHumidity_IsbL-0175_LatLon0.15_PT120H.grib2 2026-04-13 16:47 1.3M
20260413T12Z_MSC_GDPS_SpecificHumidity_IsbL-0200_LatLon0.15_PT120H.grib2 2026-04-13 16:47 1.3M
20260413T12Z_MSC_GDPS_SpecificHumidity_IsbL-0225_LatLon0.15_PT120H.grib2 2026-04-13 16:47 1.3M
20260413T12Z_MSC_GDPS_SpecificHumidity_IsbL-0250_LatLon0.15_PT120H.grib2 2026-04-13 16:47 1.2M
20260413T12Z_MSC_GDPS_SpecificHumidity_IsbL-0275_LatLon0.15_PT120H.grib2 2026-04-13 16:47 1.4M
20260413T12Z_MSC_GDPS_SpecificHumidity_IsbL-0300_LatLon0.15_PT120H.grib2 2026-04-13 16:47 1.2M
20260413T12Z_MSC_GDPS_SpecificHumidity_IsbL-0350_LatLon0.15_PT120H.grib2 2026-04-13 16:47 1.2M
20260413T12Z_MSC_GDPS_SpecificHumidity_IsbL-0400_LatLon0.15_PT120H.grib2 2026-04-13 16:47 1.4M
20260413T12Z_MSC_GDPS_SpecificHumidity_IsbL-0450_LatLon0.15_PT120H.grib2 2026-04-13 16:47 1.3M
20260413T12Z_MSC_GDPS_SpecificHumidity_IsbL-0500_LatLon0.15_PT120H.grib2 2026-04-13 16:47 1.4M
20260413T12Z_MSC_GDPS_SpecificHumidity_IsbL-0550_LatLon0.15_PT120H.grib2 2026-04-13 16:47 1.6M
20260413T12Z_MSC_GDPS_SpecificHumidity_IsbL-0600_LatLon0.15_PT120H.grib2 2026-04-13 16:47 1.4M
20260413T12Z_MSC_GDPS_SpecificHumidity_IsbL-0650_LatLon0.15_PT120H.grib2 2026-04-13 16:47 1.5M
20260413T12Z_MSC_GDPS_SpecificHumidity_IsbL-0700_LatLon0.15_PT120H.grib2 2026-04-13 16:47 1.6M
20260413T12Z_MSC_GDPS_SpecificHumidity_IsbL-0750_LatLon0.15_PT120H.grib2 2026-04-13 16:47 1.7M
20260413T12Z_MSC_GDPS_SpecificHumidity_IsbL-0800_LatLon0.15_PT120H.grib2 2026-04-13 16:47 1.9M
20260413T12Z_MSC_GDPS_SpecificHumidity_IsbL-0850_LatLon0.15_PT120H.grib2 2026-04-13 16:47 1.9M
20260413T12Z_MSC_GDPS_SpecificHumidity_IsbL-0875_LatLon0.15_PT120H.grib2 2026-04-13 16:47 1.6M
20260413T12Z_MSC_GDPS_SpecificHumidity_IsbL-0900_LatLon0.15_PT120H.grib2 2026-04-13 16:47 1.6M
20260413T12Z_MSC_GDPS_SpecificHumidity_IsbL-0925_LatLon0.15_PT120H.grib2 2026-04-13 16:47 1.6M
20260413T12Z_MSC_GDPS_SpecificHumidity_IsbL-0950_LatLon0.15_PT120H.grib2 2026-04-13 16:47 1.6M
20260413T12Z_MSC_GDPS_SpecificHumidity_IsbL-0970_LatLon0.15_PT120H.grib2 2026-04-13 16:47 1.5M
20260413T12Z_MSC_GDPS_SpecificHumidity_IsbL-0985_LatLon0.15_PT120H.grib2 2026-04-13 16:47 1.5M
20260413T12Z_MSC_GDPS_SpecificHumidity_IsbL-1000_LatLon0.15_PT120H.grib2 2026-04-13 16:47 1.5M
20260413T12Z_MSC_GDPS_SpecificHumidity_IsbL-1015_LatLon0.15_PT120H.grib2 2026-04-13 16:47 1.4M
20260413T12Z_MSC_GDPS_SpecificHumidity_Sfc_LatLon0.15_PT120H.grib2 2026-04-13 16:47 586K
20260413T12Z_MSC_GDPS_Thickness_IsbL-0850to0700_LatLon0.15_PT120H.grib2 2026-04-13 16:47 470K
20260413T12Z_MSC_GDPS_Thickness_IsbL-1000to0500_LatLon0.15_PT120H.grib2 2026-04-13 16:47 379K
20260413T12Z_MSC_GDPS_Thickness_IsbL-1000to0850_LatLon0.15_PT120H.grib2 2026-04-13 16:47 492K
20260413T12Z_MSC_GDPS_TotalCloudCover_Sfc_LatLon0.15_PT120H.grib2 2026-04-13 16:47 821K
20260413T12Z_MSC_GDPS_TotalTotalsIndex_Sfc_LatLon0.15_PT120H.grib2 2026-04-13 16:47 6.2M
20260413T12Z_MSC_GDPS_UVIndex-ClearSky_Sfc_LatLon0.15_PT120H.grib2 2026-04-13 17:07 1.0M
20260413T12Z_MSC_GDPS_UVIndex_Sfc_LatLon0.15_PT120H.grib2 2026-04-13 17:07 1.4M
20260413T12Z_MSC_GDPS_UpwardLongwaveRadiationFlux_NTAtm_LatLon0.15_PT120H.grib2 2026-04-13 16:47 843K
20260413T12Z_MSC_GDPS_VerticalVelocity_IsbL-0200_LatLon0.15_PT120H.grib2 2026-04-13 16:47 920K
20260413T12Z_MSC_GDPS_VerticalVelocity_IsbL-0250_LatLon0.15_PT120H.grib2 2026-04-13 16:47 1.0M
20260413T12Z_MSC_GDPS_VerticalVelocity_IsbL-0500_LatLon0.15_PT120H.grib2 2026-04-13 16:47 1.3M
20260413T12Z_MSC_GDPS_VerticalVelocity_IsbL-0600_LatLon0.15_PT120H.grib2 2026-04-13 16:47 1.1M
20260413T12Z_MSC_GDPS_VerticalVelocity_IsbL-0700_LatLon0.15_PT120H.grib2 2026-04-13 16:47 1.1M
20260413T12Z_MSC_GDPS_VerticalVelocity_IsbL-0850_LatLon0.15_PT120H.grib2 2026-04-13 16:47 1.6M
20260413T12Z_MSC_GDPS_WindChill_Sfc_LatLon0.15_PT120H.grib2 2026-04-13 16:47 5.4M
20260413T12Z_MSC_GDPS_WindDir_AGL-10m_LatLon0.15_PT120H.grib2 2026-04-13 16:47 1.3M
20260413T12Z_MSC_GDPS_WindDir_AGL-120m_LatLon0.15_PT120H.grib2 2026-04-13 16:47 1.4M
20260413T12Z_MSC_GDPS_WindDir_AGL-40m_LatLon0.15_PT120H.grib2 2026-04-13 16:47 1.4M
20260413T12Z_MSC_GDPS_WindDir_AGL-80m_LatLon0.15_PT120H.grib2 2026-04-13 16:47 1.4M
20260413T12Z_MSC_GDPS_WindDir_IsbL-0001_LatLon0.15_PT120H.grib2 2026-04-13 16:47 641K
20260413T12Z_MSC_GDPS_WindDir_IsbL-0005_LatLon0.15_PT120H.grib2 2026-04-13 16:47 788K
20260413T12Z_MSC_GDPS_WindDir_IsbL-0010_LatLon0.15_PT120H.grib2 2026-04-13 16:47 823K
20260413T12Z_MSC_GDPS_WindDir_IsbL-0020_LatLon0.15_PT120H.grib2 2026-04-13 16:47 902K
20260413T12Z_MSC_GDPS_WindDir_IsbL-0030_LatLon0.15_PT120H.grib2 2026-04-13 16:47 861K
20260413T12Z_MSC_GDPS_WindDir_IsbL-0050_LatLon0.15_PT120H.grib2 2026-04-13 16:47 933K
20260413T12Z_MSC_GDPS_WindDir_IsbL-0100_LatLon0.15_PT120H.grib2 2026-04-13 16:47 1.0M
20260413T12Z_MSC_GDPS_WindDir_IsbL-0150_LatLon0.15_PT120H.grib2 2026-04-13 16:47 1.0M
20260413T12Z_MSC_GDPS_WindDir_IsbL-0175_LatLon0.15_PT120H.grib2 2026-04-13 16:47 1.0M
20260413T12Z_MSC_GDPS_WindDir_IsbL-0200_LatLon0.15_PT120H.grib2 2026-04-13 16:47 1.1M
20260413T12Z_MSC_GDPS_WindDir_IsbL-0225_LatLon0.15_PT120H.grib2 2026-04-13 16:47 1.1M
20260413T12Z_MSC_GDPS_WindDir_IsbL-0250_LatLon0.15_PT120H.grib2 2026-04-13 16:47 1.1M
20260413T12Z_MSC_GDPS_WindDir_IsbL-0275_LatLon0.15_PT120H.grib2 2026-04-13 16:47 1.2M
20260413T12Z_MSC_GDPS_WindDir_IsbL-0300_LatLon0.15_PT120H.grib2 2026-04-13 16:47 1.2M
20260413T12Z_MSC_GDPS_WindDir_IsbL-0350_LatLon0.15_PT120H.grib2 2026-04-13 16:47 1.2M
20260413T12Z_MSC_GDPS_WindDir_IsbL-0400_LatLon0.15_PT120H.grib2 2026-04-13 16:47 1.3M
20260413T12Z_MSC_GDPS_WindDir_IsbL-0450_LatLon0.15_PT120H.grib2 2026-04-13 16:47 1.3M
20260413T12Z_MSC_GDPS_WindDir_IsbL-0500_LatLon0.15_PT120H.grib2 2026-04-13 16:47 1.3M
20260413T12Z_MSC_GDPS_WindDir_IsbL-0550_LatLon0.15_PT120H.grib2 2026-04-13 16:47 1.4M
20260413T12Z_MSC_GDPS_WindDir_IsbL-0600_LatLon0.15_PT120H.grib2 2026-04-13 16:47 1.5M
20260413T12Z_MSC_GDPS_WindDir_IsbL-0650_LatLon0.15_PT120H.grib2 2026-04-13 16:47 1.5M
20260413T12Z_MSC_GDPS_WindDir_IsbL-0700_LatLon0.15_PT120H.grib2 2026-04-13 16:47 1.6M
20260413T12Z_MSC_GDPS_WindDir_IsbL-0750_LatLon0.15_PT120H.grib2 2026-04-13 16:47 1.7M
20260413T12Z_MSC_GDPS_WindDir_IsbL-0800_LatLon0.15_PT120H.grib2 2026-04-13 16:47 1.9M
20260413T12Z_MSC_GDPS_WindDir_IsbL-0850_LatLon0.15_PT120H.grib2 2026-04-13 16:47 2.0M
20260413T12Z_MSC_GDPS_WindDir_IsbL-0875_LatLon0.15_PT120H.grib2 2026-04-13 16:47 2.0M
20260413T12Z_MSC_GDPS_WindDir_IsbL-0900_LatLon0.15_PT120H.grib2 2026-04-13 16:47 2.0M
20260413T12Z_MSC_GDPS_WindDir_IsbL-0925_LatLon0.15_PT120H.grib2 2026-04-13 16:47 2.0M
20260413T12Z_MSC_GDPS_WindDir_IsbL-0950_LatLon0.15_PT120H.grib2 2026-04-13 16:47 2.0M
20260413T12Z_MSC_GDPS_WindDir_IsbL-0970_LatLon0.15_PT120H.grib2 2026-04-13 16:47 2.0M
20260413T12Z_MSC_GDPS_WindDir_IsbL-0985_LatLon0.15_PT120H.grib2 2026-04-13 16:47 2.0M
20260413T12Z_MSC_GDPS_WindDir_IsbL-1000_LatLon0.15_PT120H.grib2 2026-04-13 16:47 2.1M
20260413T12Z_MSC_GDPS_WindDir_IsbL-1015_LatLon0.15_PT120H.grib2 2026-04-13 16:47 2.1M
20260413T12Z_MSC_GDPS_WindGust-Max_AGL-10m_LatLon0.15_PT120H.grib2 2026-04-13 16:47 2.3M
20260413T12Z_MSC_GDPS_WindGust-Min_AGL-10m_LatLon0.15_PT120H.grib2 2026-04-13 16:47 2.2M
20260413T12Z_MSC_GDPS_WindGust_AGL-10m_LatLon0.15_PT120H.grib2 2026-04-13 16:47 2.2M
20260413T12Z_MSC_GDPS_WindSpeed_AGL-10m_LatLon0.15_PT120H.grib2 2026-04-13 16:47 1.1M
20260413T12Z_MSC_GDPS_WindSpeed_AGL-120m_LatLon0.15_PT120H.grib2 2026-04-13 16:47 1.2M
20260413T12Z_MSC_GDPS_WindSpeed_AGL-40m_LatLon0.15_PT120H.grib2 2026-04-13 16:47 1.2M
20260413T12Z_MSC_GDPS_WindSpeed_AGL-80m_LatLon0.15_PT120H.grib2 2026-04-13 16:47 1.2M
20260413T12Z_MSC_GDPS_WindSpeed_IsbL-0001_LatLon0.15_PT120H.grib2 2026-04-13 16:47 630K
20260413T12Z_MSC_GDPS_WindSpeed_IsbL-0005_LatLon0.15_PT120H.grib2 2026-04-13 16:47 600K
20260413T12Z_MSC_GDPS_WindSpeed_IsbL-0010_LatLon0.15_PT120H.grib2 2026-04-13 16:47 617K
20260413T12Z_MSC_GDPS_WindSpeed_IsbL-0020_LatLon0.15_PT120H.grib2 2026-04-13 16:47 850K
20260413T12Z_MSC_GDPS_WindSpeed_IsbL-0030_LatLon0.15_PT120H.grib2 2026-04-13 16:47 849K
20260413T12Z_MSC_GDPS_WindSpeed_IsbL-0050_LatLon0.15_PT120H.grib2 2026-04-13 16:47 1.0M
20260413T12Z_MSC_GDPS_WindSpeed_IsbL-0100_LatLon0.15_PT120H.grib2 2026-04-13 16:47 1.1M
20260413T12Z_MSC_GDPS_WindSpeed_IsbL-0150_LatLon0.15_PT120H.grib2 2026-04-13 16:47 1.0M
20260413T12Z_MSC_GDPS_WindSpeed_IsbL-0175_LatLon0.15_PT120H.grib2 2026-04-13 16:47 1.0M
20260413T12Z_MSC_GDPS_WindSpeed_IsbL-0200_LatLon0.15_PT120H.grib2 2026-04-13 16:47 1.1M
20260413T12Z_MSC_GDPS_WindSpeed_IsbL-0225_LatLon0.15_PT120H.grib2 2026-04-13 16:47 1.1M
20260413T12Z_MSC_GDPS_WindSpeed_IsbL-0250_LatLon0.15_PT120H.grib2 2026-04-13 16:47 1.1M
20260413T12Z_MSC_GDPS_WindSpeed_IsbL-0275_LatLon0.15_PT120H.grib2 2026-04-13 16:47 1.1M
20260413T12Z_MSC_GDPS_WindSpeed_IsbL-0300_LatLon0.15_PT120H.grib2 2026-04-13 16:47 1.1M
20260413T12Z_MSC_GDPS_WindSpeed_IsbL-0350_LatLon0.15_PT120H.grib2 2026-04-13 16:47 1.1M
20260413T12Z_MSC_GDPS_WindSpeed_IsbL-0400_LatLon0.15_PT120H.grib2 2026-04-13 16:47 1.1M
20260413T12Z_MSC_GDPS_WindSpeed_IsbL-0450_LatLon0.15_PT120H.grib2 2026-04-13 16:47 1.1M
20260413T12Z_MSC_GDPS_WindSpeed_IsbL-0500_LatLon0.15_PT120H.grib2 2026-04-13 16:47 1.1M
20260413T12Z_MSC_GDPS_WindSpeed_IsbL-0550_LatLon0.15_PT120H.grib2 2026-04-13 16:47 1.1M
20260413T12Z_MSC_GDPS_WindSpeed_IsbL-0600_LatLon0.15_PT120H.grib2 2026-04-13 16:47 1.4M
20260413T12Z_MSC_GDPS_WindSpeed_IsbL-0650_LatLon0.15_PT120H.grib2 2026-04-13 16:47 1.4M
20260413T12Z_MSC_GDPS_WindSpeed_IsbL-0700_LatLon0.15_PT120H.grib2 2026-04-13 16:47 1.5M
20260413T12Z_MSC_GDPS_WindSpeed_IsbL-0750_LatLon0.15_PT120H.grib2 2026-04-13 16:47 1.7M
20260413T12Z_MSC_GDPS_WindSpeed_IsbL-0800_LatLon0.15_PT120H.grib2 2026-04-13 16:47 1.6M
20260413T12Z_MSC_GDPS_WindSpeed_IsbL-0850_LatLon0.15_PT120H.grib2 2026-04-13 16:47 1.7M
20260413T12Z_MSC_GDPS_WindSpeed_IsbL-0875_LatLon0.15_PT120H.grib2 2026-04-13 16:47 1.8M
20260413T12Z_MSC_GDPS_WindSpeed_IsbL-0900_LatLon0.15_PT120H.grib2 2026-04-13 16:47 1.8M
20260413T12Z_MSC_GDPS_WindSpeed_IsbL-0925_LatLon0.15_PT120H.grib2 2026-04-13 16:47 1.9M
20260413T12Z_MSC_GDPS_WindSpeed_IsbL-0950_LatLon0.15_PT120H.grib2 2026-04-13 16:47 1.9M
20260413T12Z_MSC_GDPS_WindSpeed_IsbL-0970_LatLon0.15_PT120H.grib2 2026-04-13 16:47 1.9M
20260413T12Z_MSC_GDPS_WindSpeed_IsbL-0985_LatLon0.15_PT120H.grib2 2026-04-13 16:47 1.9M
20260413T12Z_MSC_GDPS_WindSpeed_IsbL-1000_LatLon0.15_PT120H.grib2 2026-04-13 16:47 1.8M
20260413T12Z_MSC_GDPS_WindSpeed_IsbL-1015_LatLon0.15_PT120H.grib2 2026-04-13 16:47 1.8M
20260413T12Z_MSC_GDPS_WindU_AGL-10m_LatLon0.15_PT120H.grib2 2026-04-13 16:47 1.3M
20260413T12Z_MSC_GDPS_WindU_AGL-120m_LatLon0.15_PT120H.grib2 2026-04-13 16:47 966K
20260413T12Z_MSC_GDPS_WindU_AGL-40m_LatLon0.15_PT120H.grib2 2026-04-13 16:47 965K
20260413T12Z_MSC_GDPS_WindU_AGL-80m_LatLon0.15_PT120H.grib2 2026-04-13 16:47 968K
20260413T12Z_MSC_GDPS_WindU_IsbL-0001_LatLon0.15_PT120H.grib2 2026-04-13 16:47 637K
20260413T12Z_MSC_GDPS_WindU_IsbL-0005_LatLon0.15_PT120H.grib2 2026-04-13 16:47 684K
20260413T12Z_MSC_GDPS_WindU_IsbL-0010_LatLon0.15_PT120H.grib2 2026-04-13 16:47 694K
20260413T12Z_MSC_GDPS_WindU_IsbL-0020_LatLon0.15_PT120H.grib2 2026-04-13 16:47 730K
20260413T12Z_MSC_GDPS_WindU_IsbL-0030_LatLon0.15_PT120H.grib2 2026-04-13 16:47 729K
20260413T12Z_MSC_GDPS_WindU_IsbL-0050_LatLon0.15_PT120H.grib2 2026-04-13 16:47 698K
20260413T12Z_MSC_GDPS_WindU_IsbL-0100_LatLon0.15_PT120H.grib2 2026-04-13 16:47 923K
20260413T12Z_MSC_GDPS_WindU_IsbL-0150_LatLon0.15_PT120H.grib2 2026-04-13 16:47 1.0M
20260413T12Z_MSC_GDPS_WindU_IsbL-0175_LatLon0.15_PT120H.grib2 2026-04-13 16:47 1.0M
20260413T12Z_MSC_GDPS_WindU_IsbL-0200_LatLon0.15_PT120H.grib2 2026-04-13 16:47 843K
20260413T12Z_MSC_GDPS_WindU_IsbL-0225_LatLon0.15_PT120H.grib2 2026-04-13 16:47 1.1M
20260413T12Z_MSC_GDPS_WindU_IsbL-0250_LatLon0.15_PT120H.grib2 2026-04-13 16:47 855K
20260413T12Z_MSC_GDPS_WindU_IsbL-0275_LatLon0.15_PT120H.grib2 2026-04-13 16:47 883K
20260413T12Z_MSC_GDPS_WindU_IsbL-0300_LatLon0.15_PT120H.grib2 2026-04-13 16:47 874K
20260413T12Z_MSC_GDPS_WindU_IsbL-0350_LatLon0.15_PT120H.grib2 2026-04-13 16:47 1.1M
20260413T12Z_MSC_GDPS_WindU_IsbL-0400_LatLon0.15_PT120H.grib2 2026-04-13 16:47 1.1M
20260413T12Z_MSC_GDPS_WindU_IsbL-0450_LatLon0.15_PT120H.grib2 2026-04-13 16:47 1.1M
20260413T12Z_MSC_GDPS_WindU_IsbL-0500_LatLon0.15_PT120H.grib2 2026-04-13 16:47 1.1M
20260413T12Z_MSC_GDPS_WindU_IsbL-0550_LatLon0.15_PT120H.grib2 2026-04-13 16:47 1.1M
20260413T12Z_MSC_GDPS_WindU_IsbL-0600_LatLon0.15_PT120H.grib2 2026-04-13 16:47 1.1M
20260413T12Z_MSC_GDPS_WindU_IsbL-0650_LatLon0.15_PT120H.grib2 2026-04-13 16:47 1.1M
20260413T12Z_MSC_GDPS_WindU_IsbL-0700_LatLon0.15_PT120H.grib2 2026-04-13 16:47 1.2M
20260413T12Z_MSC_GDPS_WindU_IsbL-0750_LatLon0.15_PT120H.grib2 2026-04-13 16:47 1.2M
20260413T12Z_MSC_GDPS_WindU_IsbL-0800_LatLon0.15_PT120H.grib2 2026-04-13 16:47 1.3M
20260413T12Z_MSC_GDPS_WindU_IsbL-0850_LatLon0.15_PT120H.grib2 2026-04-13 16:47 1.4M
20260413T12Z_MSC_GDPS_WindU_IsbL-0875_LatLon0.15_PT120H.grib2 2026-04-13 16:47 1.4M
20260413T12Z_MSC_GDPS_WindU_IsbL-0900_LatLon0.15_PT120H.grib2 2026-04-13 16:47 1.5M
20260413T12Z_MSC_GDPS_WindU_IsbL-0925_LatLon0.15_PT120H.grib2 2026-04-13 16:47 1.4M
20260413T12Z_MSC_GDPS_WindU_IsbL-0950_LatLon0.15_PT120H.grib2 2026-04-13 16:47 1.4M
20260413T12Z_MSC_GDPS_WindU_IsbL-0970_LatLon0.15_PT120H.grib2 2026-04-13 16:47 1.4M
20260413T12Z_MSC_GDPS_WindU_IsbL-0985_LatLon0.15_PT120H.grib2 2026-04-13 16:47 1.4M
20260413T12Z_MSC_GDPS_WindU_IsbL-1000_LatLon0.15_PT120H.grib2 2026-04-13 16:47 1.4M
20260413T12Z_MSC_GDPS_WindU_IsbL-1015_LatLon0.15_PT120H.grib2 2026-04-13 16:47 1.3M
20260413T12Z_MSC_GDPS_WindV_AGL-10m_LatLon0.15_PT120H.grib2 2026-04-13 16:47 1.6M
20260413T12Z_MSC_GDPS_WindV_AGL-120m_LatLon0.15_PT120H.grib2 2026-04-13 16:47 1.0M
20260413T12Z_MSC_GDPS_WindV_AGL-40m_LatLon0.15_PT120H.grib2 2026-04-13 16:47 969K
20260413T12Z_MSC_GDPS_WindV_AGL-80m_LatLon0.15_PT120H.grib2 2026-04-13 16:47 1.0M
20260413T12Z_MSC_GDPS_WindV_IsbL-0001_LatLon0.15_PT120H.grib2 2026-04-13 16:47 759K
20260413T12Z_MSC_GDPS_WindV_IsbL-0005_LatLon0.15_PT120H.grib2 2026-04-13 16:47 841K
20260413T12Z_MSC_GDPS_WindV_IsbL-0010_LatLon0.15_PT120H.grib2 2026-04-13 16:47 793K
20260413T12Z_MSC_GDPS_WindV_IsbL-0020_LatLon0.15_PT120H.grib2 2026-04-13 16:47 846K
20260413T12Z_MSC_GDPS_WindV_IsbL-0030_LatLon0.15_PT120H.grib2 2026-04-13 16:47 844K
20260413T12Z_MSC_GDPS_WindV_IsbL-0050_LatLon0.15_PT120H.grib2 2026-04-13 16:47 696K
20260413T12Z_MSC_GDPS_WindV_IsbL-0100_LatLon0.15_PT120H.grib2 2026-04-13 16:47 847K
20260413T12Z_MSC_GDPS_WindV_IsbL-0150_LatLon0.15_PT120H.grib2 2026-04-13 16:47 1.0M
20260413T12Z_MSC_GDPS_WindV_IsbL-0175_LatLon0.15_PT120H.grib2 2026-04-13 16:47 1.0M
20260413T12Z_MSC_GDPS_WindV_IsbL-0200_LatLon0.15_PT120H.grib2 2026-04-13 16:47 839K
20260413T12Z_MSC_GDPS_WindV_IsbL-0225_LatLon0.15_PT120H.grib2 2026-04-13 16:47 851K
20260413T12Z_MSC_GDPS_WindV_IsbL-0250_LatLon0.15_PT120H.grib2 2026-04-13 16:47 912K
20260413T12Z_MSC_GDPS_WindV_IsbL-0275_LatLon0.15_PT120H.grib2 2026-04-13 16:47 937K
20260413T12Z_MSC_GDPS_WindV_IsbL-0300_LatLon0.15_PT120H.grib2 2026-04-13 16:47 926K
20260413T12Z_MSC_GDPS_WindV_IsbL-0350_LatLon0.15_PT120H.grib2 2026-04-13 16:47 938K
20260413T12Z_MSC_GDPS_WindV_IsbL-0400_LatLon0.15_PT120H.grib2 2026-04-13 16:47 876K
20260413T12Z_MSC_GDPS_WindV_IsbL-0450_LatLon0.15_PT120H.grib2 2026-04-13 16:47 875K
20260413T12Z_MSC_GDPS_WindV_IsbL-0500_LatLon0.15_PT120H.grib2 2026-04-13 16:47 878K
20260413T12Z_MSC_GDPS_WindV_IsbL-0550_LatLon0.15_PT120H.grib2 2026-04-13 16:47 1.1M
20260413T12Z_MSC_GDPS_WindV_IsbL-0600_LatLon0.15_PT120H.grib2 2026-04-13 16:47 1.1M
20260413T12Z_MSC_GDPS_WindV_IsbL-0650_LatLon0.15_PT120H.grib2 2026-04-13 16:47 1.2M
20260413T12Z_MSC_GDPS_WindV_IsbL-0700_LatLon0.15_PT120H.grib2 2026-04-13 16:47 1.2M
20260413T12Z_MSC_GDPS_WindV_IsbL-0750_LatLon0.15_PT120H.grib2 2026-04-13 16:47 1.3M
20260413T12Z_MSC_GDPS_WindV_IsbL-0800_LatLon0.15_PT120H.grib2 2026-04-13 16:47 1.3M
20260413T12Z_MSC_GDPS_WindV_IsbL-0850_LatLon0.15_PT120H.grib2 2026-04-13 16:47 1.4M
20260413T12Z_MSC_GDPS_WindV_IsbL-0875_LatLon0.15_PT120H.grib2 2026-04-13 16:47 1.4M
20260413T12Z_MSC_GDPS_WindV_IsbL-0900_LatLon0.15_PT120H.grib2 2026-04-13 16:47 1.4M
20260413T12Z_MSC_GDPS_WindV_IsbL-0925_LatLon0.15_PT120H.grib2 2026-04-13 16:47 1.4M
20260413T12Z_MSC_GDPS_WindV_IsbL-0950_LatLon0.15_PT120H.grib2 2026-04-13 16:47 1.4M
20260413T12Z_MSC_GDPS_WindV_IsbL-0970_LatLon0.15_PT120H.grib2 2026-04-13 16:47 1.4M
20260413T12Z_MSC_GDPS_WindV_IsbL-0985_LatLon0.15_PT120H.grib2 2026-04-13 16:47 1.4M
20260413T12Z_MSC_GDPS_WindV_IsbL-1000_LatLon0.15_PT120H.grib2 2026-04-13 16:47 1.7M
20260413T12Z_MSC_GDPS_WindV_IsbL-1015_LatLon0.15_PT120H.grib2 2026-04-13 16:47 1.6M